[ hide orbit diagram ]
For accurate long-term ephemerides, please instead use our Horizons system.This orbit viewer was implemented using two-body methods, and hence should not be used for determining accurate long-term trajectories (over several years or decades) or planetary encounter circumstances.
Orbital Elements at Epoch 2459000.5 (2020-May-31.0) TDB
Reference: JPL 13 (heliocentric ecliptic J2000)
Element | Value | Uncertainty (1-sigma) | Units |
e | .239292960791577 | 1.1268e-05 | |
a | 52.46270523360067 | 0.0013025 | au |
q | 39.9087491671166 | 0.0004378 | au |
i | .2503691023806967 | 3.9991e-05 | deg |
node | 259.9631337533506 | 0.0055158 | deg |
peri | 84.091166720288 | 0.0063257 | deg |
M | 46.83462849194692 | 0.0034293 | deg |
tp | 2440943.773187398354 (1970-Dec-23.27318740) | 0.6548 | TDB |
period | 138795.2005139599 380.00 | 5.169 0.01415 | d yr |
n | .002593749630152316 | 9.6596e-08 | deg/d |
Q | 65.01666130008473 | 0.0016142 | au |
|
| | Orbit Determination Parameters
Additional Information
|
[ show covariance matrix ]
48639 (1995 TL8) Discovered 1995-Oct-15 by Gleason, A. at Steward |
Reference: 20021120/Numbers.arc | Last Updated: 2004-04-19 |
|
|